• In Hungary
  • List of Countries
  • For 7 days
  • Water Temperature
  • Satellite Maps
  • Weather Map
  • News
  • Weather Widgets
  • user-avatar
    Login

    Hourly Weather Niamey

    Today, 22 September, Saturday

    Time Temperature Precipitation Wind Pressure Humidity
    00:00 +36°C° 0 mm 5 mps 739 mmHg 40%
    01:00 +35°C° 0 mm 5 mps 739 mmHg 45%
    02:00 +34°C° 0 mm 5 mps 739 mmHg 50%
    03:00 +34°C° 0 mm 5 mps 738 mmHg 54%
    04:00 +33°C° 0 mm 5 mps 739 mmHg 57%
    05:00 +33°C° 0 mm 5 mps 739 mmHg 59%
    06:00 +32°C° 0 mm 5 mps 739 mmHg 61%
    07:00 +34°C° 0 mm 6 mps 740 mmHg 57%
    08:00 +35°C° 0 mm 6 mps 740 mmHg 53%
    09:00 +36°C° 0 mm 6 mps 741 mmHg 48%
    10:00 +39°C° 0 mm 5 mps 741 mmHg 43%
    11:00 +40°C° 0 mm 4 mps 740 mmHg 38%
    12:00 +40°C° 0 mm 3 mps 740 mmHg 33%
    13:00 +41°C° 0 mm 2 mps 739 mmHg 31%
    14:00 +41°C° 0 mm 1 mps 738 mmHg 28%
    15:00 +39°C° 0 mm 0 mps 738 mmHg 26%
    16:00 +41°C° 0 mm 1 mps 738 mmHg 27%
    17:00 +41°C° 0 mm 1 mps 738 mmHg 28%
    18:00 +40°C° 0 mm 1 mps 738 mmHg 28%
    19:00 +40°C° 0 mm 2 mps 738 mmHg 30%
    20:00 +39°C° 0 mm 2 mps 738 mmHg 32%
    21:00 +39°C° 0 mm 3 mps 739 mmHg 34%
    22:00 +38°C° 0 mm 3 mps 739 mmHg 37%
    23:00 +37°C° 0 mm 4 mps 739 mmHg 39%

    Tomorrow, 23 September, Sunday

    Time Temperature Precipitation Wind Pressure Humidity
    00:00 +36°C° 0 mm 4 mps 739 mmHg 42%
    01:00 +35°C° 0.1 mm 4 mps 739 mmHg 47%
    02:00 +34°C° 0.1 mm 5 mps 739 mmHg 52%
    03:00 +33°C° 0.1 mm 6 mps 739 mmHg 57%
    04:00 +33°C° 0 mm 5 mps 739 mmHg 60%
    05:00 +32°C° 0 mm 5 mps 739 mmHg 64%
    06:00 +30°C° 0 mm 4 mps 740 mmHg 67%
    07:00 +33°C° 0 mm 5 mps 740 mmHg 62%
    08:00 +34°C° 0 mm 5 mps 741 mmHg 56%
    09:00 +35°C° 0 mm 6 mps 742 mmHg 51%
    10:00 +38°C° 0 mm 6 mps 741 mmHg 47%
    11:00 +39°C° 0 mm 6 mps 741 mmHg 43%
    12:00 +40°C° 0 mm 5 mps 740 mmHg 39%
    13:00 +40°C° 0 mm 5 mps 740 mmHg 38%
    14:00 +41°C° 0 mm 5 mps 739 mmHg 36%
    15:00 +41°C° 0 mm 5 mps 739 mmHg 35%
    16:00 +40°C° 0 mm 5 mps 739 mmHg 38%
    17:00 +39°C° 0 mm 5 mps 739 mmHg 40%
    18:00 +37°C° 0 mm 5 mps 739 mmHg 43%
    19:00 +36°C° 0.3 mm 5 mps 740 mmHg 48%
    20:00 +34°C° 0.3 mm 6 mps 740 mmHg 54%
    21:00 +33°C° 0.3 mm 6 mps 741 mmHg 59%
    22:00 +33°C° 0.5 mm 6 mps 740 mmHg 61%
    23:00 +32°C° 0.5 mm 6 mps 740 mmHg 62%

    Day after tomorrow, 24 September, Monday

    Time Temperature Precipitation Wind Pressure Humidity
    00:00 +32°C° 0.5 mm 5 mps 740 mmHg 64%
    01:00 +30°C° 0 mm 5 mps 740 mmHg 64%
    02:00 +30°C° 0 mm 5 mps 740 mmHg 64%
    03:00 +30°C° 0 mm 5 mps 740 mmHg 63%
    04:00 +30°C° 0 mm 5 mps 740 mmHg 64%
    05:00 +30°C° 0 mm 5 mps 740 mmHg 64%
    06:00 +29°C° 0 mm 5 mps 740 mmHg 65%
    07:00 +32°C° 0 mm 5 mps 741 mmHg 59%
    08:00 +33°C° 0 mm 6 mps 741 mmHg 53%
    09:00 +35°C° 0 mm 6 mps 742 mmHg 47%
    10:00 +38°C° 0 mm 6 mps 741 mmHg 42%
    11:00 +39°C° 0 mm 5 mps 741 mmHg 38%
    12:00 +41°C° 0 mm 5 mps 740 mmHg 33%
    13:00 +42°C° 0 mm 4 mps 739 mmHg 31%
    14:00 +42°C° 0 mm 3 mps 739 mmHg 28%
    15:00 +43°C° 0 mm 3 mps 738 mmHg 26%
    16:00 +42°C° 0 mm 2 mps 738 mmHg 26%
    17:00 +41°C° 0 mm 2 mps 738 mmHg 27%
    18:00 +40°C° 0 mm 1 mps 738 mmHg 27%
    19:00 +40°C° 0 mm 2 mps 739 mmHg 29%
    20:00 +39°C° 0 mm 3 mps 739 mmHg 30%
    21:00 +38°C° 0 mm 3 mps 740 mmHg 32%
    22:00 +37°C° 0 mm 4 mps 739 mmHg 35%
    23:00 +37°C° 0 mm 5 mps 739 mmHg 38%

    25 September, Tuesday

    Time Temperature Precipitation Wind Pressure Humidity
    00:00 +36°C° 0 mm 6 mps 739 mmHg 42%
    01:00 +35°C° 0 mm 6 mps 739 mmHg 45%
    02:00 +34°C° 0 mm 6 mps 739 mmHg 47%
    03:00 +34°C° 0 mm 6 mps 738 mmHg 50%
    04:00 +33°C° 0 mm 6 mps 739 mmHg 51%
    05:00 +33°C° 0 mm 6 mps 739 mmHg 53%
    06:00 +32°C° 0 mm 6 mps 739 mmHg 54%
    07:00 +34°C° 0 mm 6 mps 739 mmHg 50%
    08:00 +35°C° 0 mm 6 mps 740 mmHg 46%
    09:00 +38°C° 0 mm 7 mps 740 mmHg 43%
    10:00 +39°C° 0 mm 5 mps 740 mmHg 37%
    11:00 +41°C° 0 mm 4 mps 739 mmHg 32%
    12:00 +43°C° 0 mm 3 mps 739 mmHg 27%
    13:00 +44°C° 0 mm 3 mps 738 mmHg 24%
    14:00 +43°C° 0 mm 2 mps 737 mmHg 22%
    15:00 +44°C° 0 mm 1 mps 737 mmHg 19%
    16:00 +43°C° 0 mm 2 mps 737 mmHg 19%
    17:00 +42°C° 0 mm 2 mps 737 mmHg 20%
    18:00 +42°C° 0 mm 2 mps 737 mmHg 20%
    19:00 +42°C° 0 mm 3 mps 737 mmHg 24%
    20:00 +41°C° 0 mm 4 mps 738 mmHg 27%
    21:00 +40°C° 0 mm 5 mps 738 mmHg 31%
    22:00 +39°C° 0 mm 5 mps 738 mmHg 36%
    23:00 +37°C° 0 mm 5 mps 738 mmHg 42%

    26 September, Wednesday

    Time Temperature Precipitation Wind Pressure Humidity
    00:00 +36°C° 0 mm 6 mps 738 mmHg 47%
    01:00 +35°C° 0 mm 6 mps 738 mmHg 52%
    02:00 +34°C° 0 mm 7 mps 738 mmHg 57%
    03:00 +33°C° 0 mm 7 mps 738 mmHg 61%
    04:00 +33°C° 0 mm 7 mps 738 mmHg 63%
    05:00 +32°C° 0 mm 6 mps 739 mmHg 64%
    06:00 +32°C° 0 mm 5 mps 739 mmHg 66%
    07:00 +33°C° 0 mm 5 mps 740 mmHg 61%
    08:00 +35°C° 0 mm 5 mps 740 mmHg 56%
    09:00 +36°C° 0 mm 5 mps 741 mmHg 51%
    10:00 +37°C° 0 mm 4 mps 740 mmHg 46%
    11:00 +40°C° 0 mm 4 mps 740 mmHg 41%
    12:00 +41°C° 0 mm 4 mps 739 mmHg 36%
    13:00 +40°C° 0 mm 3 mps 739 mmHg 35%
    14:00 +42°C° 0 mm 3 mps 738 mmHg 33%
    15:00 +41°C° 0 mm 2 mps 737 mmHg 32%
    16:00 +41°C° 0 mm 2 mps 738 mmHg 32%
    17:00 +40°C° 0 mm 2 mps 738 mmHg 33%
    18:00 +40°C° 0 mm 2 mps 738 mmHg 34%
    19:00 +39°C° 0.3 mm 3 mps 738 mmHg 37%
    20:00 +38°C° 0.3 mm 3 mps 739 mmHg 39%
    21:00 +37°C° 0.3 mm 4 mps 739 mmHg 42%
    22:00 +36°C° 0.8 mm 4 mps 739 mmHg 45%
    23:00 +35°C° 0.8 mm 4 mps 739 mmHg 49%

    27 September, Thursday

    Time Temperature Precipitation Wind Pressure Humidity
    00:00 +34°C° 0.8 mm 4 mps 739 mmHg 53%
    01:00 +34°C° 0.8 mm 4 mps 739 mmHg 56%
    02:00 +33°C° 0.8 mm 4 mps 739 mmHg 59%
    03:00 +33°C° 0.8 mm 4 mps 739 mmHg 62%
    04:00 +32°C° 0 mm 4 mps 739 mmHg 62%
    05:00 +32°C° 0 mm 4 mps 739 mmHg 63%
    06:00 +32°C° 0 mm 5 mps 739 mmHg 63%
    07:00 +33°C° 0 mm 5 mps 739 mmHg 59%
    08:00 +34°C° 0 mm 4 mps 740 mmHg 56%
    09:00 +35°C° 0 mm 4 mps 740 mmHg 52%
    10:00 +36°C° 0 mm 4 mps 740 mmHg 48%
    11:00 +38°C° 0 mm 4 mps 740 mmHg 43%
    12:00 +39°C° 0 mm 3 mps 739 mmHg 38%
    13:00 +40°C° 0 mm 2 mps 739 mmHg 36%
    14:00 +40°C° 0 mm 2 mps 738 mmHg 33%
    15:00 +41°C° 0 mm 1 mps 737 mmHg 31%
    16:00 +41°C° 0 mm 1 mps 738 mmHg 31%
    17:00 +40°C° 0 mm 2 mps 738 mmHg 32%
    18:00 +40°C° 0 mm 2 mps 738 mmHg 32%
    19:00 +39°C° 0.1 mm 2 mps 738 mmHg 34%
    20:00 +39°C° 0.1 mm 3 mps 739 mmHg 35%
    21:00 +38°C° 0.1 mm 3 mps 739 mmHg 37%
    22:00 +37°C° 0.1 mm 4 mps 739 mmHg 40%
    23:00 +37°C° 0.1 mm 4 mps 739 mmHg 43%
    Show more